Regional Weather Roundup
Issued by NWS

Home | Current Version | Previous Version | Text Only | Print | Product List | Glossary On
Versions: 1 2 3 4 5 6 7 8 9 10 11 12 13 14 15 16 17 18 19 20 21 22 23 24 25 26 27 28 29 30 31 32 33 34 35 36 37 38 39 40 41 42 43 44 45 46 47 48 49 50
795
ASUS46 KLOX 100113
RWRCA

SOUTHERN CALIFORNIA WEATHER ROUNDUP
NATIONAL WEATHER SERVICE OXNARD CALIFORNIA
500 PM PST TUE FEB 09 2016

NOTE: "FAIR" INDICATES FEW OR NO CLOUDS BELOW 12,000 FEET WITH NO
SIGNIFICANT WEATHER AND/OR OBSTRUCTIONS TO VISIBILITY.

  -  STATIONS PRECEEDED BY AN ASTERISK (*) ARE NOT NWS OR FAA
     STATIONS AND ARE NOT SUBJECT TO NWS AND FAA QUALITY CONTROL.

CAZ041-042-087-100200-
LA AND ORANGE COUNTY COASTAL AREAS


CITY           SKY/WX    TMP DP  RH WIND       PRES   REMARKS
L.A. DOWNTOWN  CLEAR     83  30  14 CALM      30.06R
L.A. AIRPORT   PTCLDY    73  40  30 W9        30.07S
LONG BEACH     CLEAR     82  34  17 W12       30.06R

CITY           SKY/WX    TMP DP  RH WIND       PRES   REMARKS
FULLERTON      CLEAR     90  24   9 CALM      30.05R
HAWTHORNE      CLEAR     80  28  15 W7        30.08R
*LOS ALAMITOS  CLEAR     84  35  17 W13       30.06R
*REDONDO BEACH   N/A     72  43  35 CALM      30.09R
SANTA ANA      PTCLDY    82  32  16 SW5       30.06R
STA MONICA APT CLEAR     80  29  15 SW7       30.07S
TORRANCE       PTCLDY    75  37  25 W12       30.08R
*UCLA            N/A     81  23  12 S2        30.05F

$$

CAZ547-548-048-100200-
LA COUNTY VALLEYS AND INLAND EMPIRE


CITY           SKY/WX    TMP DP  RH WIND       PRES   REMARKS
BURBANK        CLEAR     86  28  12 SE7       30.08S
VAN NUYS       PTCLDY    81  26  13 N15       30.08F

CITY           SKY/WX    TMP DP  RH WIND       PRES   REMARKS
*CHATSWORTH      N/A     81  31  16 NE6       30.09S
CHINO          PTCLDY    87  23   9 E3        30.10R
*CLAREMONT       N/A     81  27  14 W3          N/A
MARCH AFB      CLEAR     80  22  11 NE6       30.13R
*NORTHRIDGE      N/A     81  19  10 NW5G12      N/A
ONTARIO        PTCLDY    82  23  11 NW7       30.10R
*PASADENA        N/A     84  34  16 CALM        N/A
RIVERSIDE      CLEAR     84  22  10 N8        30.10R
SAN BERNARDINO CLEAR     82  25  12 NW7       30.12R
*SAN GABRIEL     N/A     86  29  13 SW3       30.13R
*WHITEMAN AP   NOT AVBL
*WOODLAND HILL   N/A     82  23  11 N7          N/A

$$

CAZ054-055-100200-
LA AND SAN BERNARDINO COUNTY MOUNTAINS


CITY           SKY/WX    TMP DP  RH WIND       PRES   REMARKS
*ACTON           N/A     73  23  15 W8G21       N/A
*BIG BEAR AIRP CLEAR     52  18  25 CALM      30.41R
*BIG PINES       N/A     54  23  30 CALM        N/A
*CHILAO          N/A     61  17  18 N14         N/A
SANDBERG       PTCLDY    62  20  19 E15       30.31F
*WARM SPRINGS    N/A     65  48  54 NE20        N/A

$$

CAZ028-029-059-060-099-100200-
ANTELOPE VALLEY AND SURROUNDING AREAS


CITY           SKY/WX    TMP DP  RH WIND       PRES   REMARKS
LANCASTER      CLEAR     71  27  19 NE6       30.24S
PALMDALE       CLEAR     72  24  16 NE8       30.24S

CITY           SKY/WX    TMP DP  RH WIND       PRES   REMARKS
29 PALMS       CLEAR     72  20  14 N7        30.27S
BARSTOW/DAGGET CLEAR     73  23  15 E5        30.23R
BISHOP         PTCLDY    66  24  20 S5        30.29R
CHINA LAKE     PTCLDY    73  22  14 CALM      30.23F
MOJAVE         CLEAR     72  27  18 CALM      30.26S
NEEDLES        CLEAR     76  23  14 N13       30.16R
VICTORVILLE    CLEAR     70  18  13 CALM      30.26R

$$

CAZ039-040-100200-
VENTURA AND SANTA BARBARA COUNTY COAST


CITY           SKY/WX    TMP DP  RH WIND       PRES   REMARKS
CAMARILLO      PTCLDY    79  35  20 SW3       30.06S
NWS OXNARD       N/A     79  34  20 W3        30.05S
OXNARD AIRPORT PTCLDY    74  38  27 W5        30.06F
*POINT MUGU    PTCLDY    71  49  45 CALM      30.07S
SBA APT/GOLETA PTCLDY    75  36  24 W9        30.07R
*SANTA BARBARA   N/A     88  27  11 CALM      30.14R
*VENTURA         N/A     80  38  23 SW2       30.04F

$$

CAZ044-045-100200-
VENTURA COUNTY VALLEYS


CITY           SKY/WX    TMP DP  RH WIND       PRES   REMARKS
*SIMI VALLEY     N/A     79  29  16 NE7       30.03S
*WESTLAKE VILL   N/A     78  37  23 NE1       30.08S
*OJAI            N/A     79  40  25 CALM      30.03S
*FILLMORE        N/A     81  38  21 E2        29.97R

$$

CAZ053-100200-
VENTURA COUNTY MOUNTAINS


CITY           SKY/WX    TMP DP  RH WIND       PRES   REMARKS
*LOCKWOOD VLY    N/A     59  12  15 MISG        N/A
*ROSE VALLEY     N/A     72  34  25 MISG        N/A

$$

CAZ034-035-036-100200-
CENTRAL COAST AND SANTA YNEZ VALLEY


CITY           SKY/WX    TMP DP  RH WIND       PRES   REMARKS
SAN LUIS OBISP MOCLDY    72  45  37 NW18      30.10R
SANTA MARIA    MOCLDY    72  51  47 W7        30.10R

CITY           SKY/WX    TMP DP  RH WIND       PRES   REMARKS
*CAL POLY SLO    N/A     81  54  39 W6          N/A
*PISMO BEACH     N/A     66  53  63 CALM      30.10R
*SANTA YNEZ    FAIR      77  34  20 W5        30.10R

$$

CAZ037-038-051-100200-
SAN LUIS OBISPO COUNTY INTERIOR AND CUYAMA VALLEY


CITY           SKY/WX    TMP DP  RH WIND       PRES   REMARKS
*CUYAMA          N/A     70  43  37 SE6       30.10R
PASO ROBLES    PTCLDY    73  53  49 CALM      30.13R

$$

CAZ032-033-061-100200-
SOUTHERN DESERTS


CITY           SKY/WX    TMP DP  RH WIND       PRES   REMARKS
BLYTHE         CLEAR     81  25  12 N8        30.11S
IMPERIAL       CLEAR     82  30  15 NW3       30.08S
PALM SPRINGS   CLEAR     84  25  11 SW5       30.12S
THERMAL        CLEAR     83  34  17 E5        30.07R

$$

ELSEWHERE ACROSS THE WESTERN UNITED STATES AND MEXICO


CITY           SKY/WX    TMP DP  RH WIND       PRES   REMARKS
DEATH VALLEY,    N/A     78  33  19 CALM        N/A
DENVER, CO     CLEAR     41  22  46 S13       30.28S WCI  34
GRAND CANYON,  CLEAR     49  10  20 NE7       30.41F
HONOLULU, HI   MOSUNNY   79  57  47 SW12      29.98F
KAHULUI, MAUI  MOSUNNY   79  59  50 NE12G21   29.99F
LAKE TAHOE, CA MOCLDY    42  30  62 CALM      30.37S
LAS VEGAS, NV  CLEAR     71  25  17 CALM      30.22S
MAMMOTH LAKES, FAIR      48  16  27 CALM      30.43S
MEXICO CITY, M CLOUDY    57  34  41 NE7       30.35R
PHOENIX, AZ    CLEAR     83  18   9 NE8       30.07S
PORTLAND, OR   CLOUDY    56  39  53 SE10      30.17S
RENO, NV       MOCLDY    57  35  43 SE6       30.32F
SALT LAKE CITY PTCLDY    35  28  75 NW6       30.50S HAZE    WCI  30
SAN DIEGO, CA  PTCLDY    81  31  16 NW7       30.06R
SAN FRANCISCO, MOCLDY    64  50  60 W13       30.15S
SAN JOSE, CA   CLOUDY    68  51  54 NW8       30.14R
SEATTLE, WA    MOCLDY    55  43  63 S7        30.13S
TIJUANA, MEX   CLEAR     79  28  15 W5        30.09R

$$

STATION/POSITION TIME  TEMP    WIND        PRES    VSBY  WAVE
                       AIR SEA DIR/SP/G                  HT/PER
                 (UTC) (F)     (DEG/KT/KT) (MB)    (MI)  (FT/S)
POINT ARGUELLO B NOT AVBL
WEST SANTA BARBA 0050   64 61  300/  6/  6 1018.6R         6/15
POINT CONCEPTION NOT AVBL
EAST SANTA BARBA 0100   63 60  260/ 10/ 12 1018.9R
SANTA MONICA BAY 0050   65 62  350/  2/  4 1018.5F         3/15



USA.gov is the U.S. government's official web portal to all federal, state and local government web resources and services.